FW8155 Weather Reports


time (UTC)temp
C
wind
direction
speed
KPH
gust
KPH
rain 1hr
cm
rain 24hr
cm
rain mn
cm
humidity
%
barometer
mb
20260906210455 28 189 4.8 9.7 0.00 0.28 0.28 59 1014.9
20260906205954 29 170 11.3 12.9 0.00 0.28 0.28 61 1014.9
20260906205450 28 180 0.0 17.7 0.00 0.28 0.28 63 1014.6
20260906204946 28 169 4.8 11.3 0.00 0.28 0.28 61 1015.1
20260906204445 28 194 4.8 8.0 0.00 0.28 0.28 61 1015.1
20260906203944 28 174 6.4 11.3 0.00 0.28 0.28 61 1014.9
20260906203440 28 217 3.2 8.0 0.00 0.28 0.28 63 1015.2
20260906202937 28 203 8.0 11.3 0.00 0.28 0.28 63 1015.2
20260906202436 28 175 9.7 11.3 0.00 0.28 0.28 64 1015.3
20260906201931 28 157 6.4 20.9 0.00 0.28 0.28 63 1015.4
20260906201426 28 129 9.7 16.1 0.00 0.28 0.28 63 1015.4
20260906200921 27 173 6.4 16.1 0.00 0.28 0.28 65 1015.4
20260906200412 27 199 9.7 11.3 0.00 0.28 0.28 64 1015.4
20260906195911 27 178 6.4 12.9 0.00 0.28 0.28 65 1015.6
20260906195408 27 166 8.0 9.7 0.00 0.28 0.28 66 1015.6
20260906194904 27 223 8.0 20.9 0.00 0.28 0.28 66 1015.6
20260906194359 27 170 8.0 17.7 0.00 0.28 0.28 66 1015.5
20260906193854 27 195 8.0 14.5 0.00 0.28 0.28 67 1015.6
20260906193349 27 200 6.4 17.7 0.00 0.28 0.28 68 1016.0
20260906192845 26 214 8.0 19.3 0.00 0.28 0.28 68 1015.7
20260906192339 26 200 9.7 14.5 0.00 0.28 0.28 66 1015.8
20260906191839 26 170 9.7 11.3 0.00 0.28 0.28 69 1015.7
20260906191339 26 180 12.9 17.7 0.00 0.28 0.28 69 1016.1
20260906190833 26 162 8.0 17.7 0.00 0.28 0.28 68 1015.8
20260906190332 26 208 8.0 17.7 0.00 0.28 0.28 68 1016.1
20260906185827 26 180 12.9 14.5 0.00 0.28 0.28 69 1016.2
20260906185326 26 195 9.7 22.5 0.00 0.28 0.28 68 1016.4
20260906184821 26 195 4.8 17.7 0.00 0.28 0.28 68 1016.3
20260906184315 26 202 4.8 9.7 0.00 0.28 0.28 70 1016.4
20260906183811 26 158 12.9 17.7 0.00 0.28 0.28 72 1016.4
20260906183308 26 148 8.0 19.3 0.00 0.28 0.28 71 1016.4
20260906182808 25 168 6.4 22.5 0.00 0.28 0.28 73 1016.4
20260906182306 25 141 12.9 14.5 0.00 0.28 0.28 73 1017.0
20260906181758 25 200 8.0 17.7 0.00 0.28 0.28 72 1016.6
20260906181254 25 180 14.5 14.5 0.00 0.28 0.28 73 1017.0
20260906180754 25 180 6.4 14.5 0.00 0.28 0.28 74 1017.0
20260906180249 25 154 4.8 22.5 0.00 0.28 0.28 76 1017.0
20260906175746 25 118 8.0 22.5 0.00 0.28 0.28 75 1017.3
20260906175243 25 176 9.7 17.7 0.00 0.28 0.28 75 1017.2
20260906174741 24 178 6.4 17.7 0.00 0.28 0.28 75 1017.3
20260906174241 24 183 8.0 17.7 0.00 0.28 0.28 77 1017.2
20260906173736 24 183 8.0 22.5 0.00 0.28 0.28 77 1017.3
20260906173232 24 167 11.3 19.3 0.00 0.28 0.28 76 1017.7
20260906172731 23 182 19.3 24.1 0.00 0.28 0.28 77 1017.7
20260906172226 23 160 14.5 25.7 0.00 0.28 0.28 77 1017.7
20260906171721 23 187 8.0 20.9 0.00 0.28 0.28 78 1017.6
20260906171216 23 194 12.9 24.1 0.00 0.28 0.28 79 1017.9
20260906170713 23 199 17.7 20.9 0.00 0.28 0.28 79 1017.9
20260906170213 23 180 14.5 20.9 0.00 0.28 0.28 78 1017.6
20260906165709 23 201 4.8 20.9 0.00 0.28 0.28 79 1017.7
20260906165204 23 177 9.7 22.5 0.00 0.28 0.28 78 1017.8
20260906164702 22 187 8.0 20.9 0.00 0.28 0.28 78 1017.8
20260906164158 23 168 12.9 17.7 0.00 0.28 0.28 78 1017.6
20260906163654 23 199 12.9 19.3 0.00 0.28 0.28 79 1017.6
20260906163150 22 194 11.3 16.1 0.00 0.28 0.28 79 1017.6
20260906162647 22 131 8.0 20.9 0.00 0.28 0.28 79 1017.7
20260906162146 22 210 4.8 14.5 0.00 0.28 0.28 80 1017.9
20260906161641 22 184 9.7 17.7 0.00 0.28 0.28 80 1017.9
20260906161140 22 180 6.4 14.5 0.00 0.28 0.28 80 1017.9
20260906160639 21 197 8.0 12.9 0.00 0.28 0.28 80 1018.2
20260906160139 21 182 6.4 16.1 0.00 0.28 0.28 80 1018.0
20260906155636 21 186 22.5 22.5 0.00 0.28 0.28 80 1017.8
20260906155132 21 173 11.3 12.9 0.00 0.28 0.28 80 1017.8
20260906154627 21 190 8.0 12.9 0.00 0.28 0.28 80 1017.6
20260906154127 21 247 4.8 14.5 0.00 0.28 0.28 81 1017.8
20260906153625 21 193 11.3 14.5 0.00 0.28 0.28 81 1018.0
20260906153121 21 180 16.1 17.7 0.00 0.28 0.28 81 1017.9
20260906152615 20 184 9.7 12.9 0.00 0.28 0.28 82 1017.9
20260906152109 20 165 9.7 17.7 0.00 0.28 0.28 84 1017.8
20260906151604 20 186 9.7 12.9 0.00 0.28 0.28 84 1018.0
20260906151100 20 177 4.8 8.0 0.00 0.28 0.28 86 1018.1
20260906150555 18 186 0.0 3.2 0.00 0.28 0.28 87 1018.0
20260906150050 18 180 1.6 4.8 0.00 0.28 0.28 86 1017.9
20260906145549 18 215 1.6 3.2 0.00 0.28 0.28 87 1017.9
20260906145044 18 180 0.0 3.2 0.00 0.28 0.28 87 1017.8
20260906144538 18 183 3.2 4.8 0.00 0.28 0.28 88 1017.9
20260906144034 18 246 0.0 1.6 0.00 0.28 0.28 88 1017.9
20260906143528 18 212 3.2 3.2 0.00 0.28 0.28 88 1017.9
20260906143025 18 286 0.0 3.2 0.00 0.28 0.28 88 1018.0
20260906142519 18 198 0.0 4.8 0.00 0.28 0.28 88 1018.2
20260906142015 18 168 0.0 4.8 0.00 0.28 0.28 88 1018.6
20260906141514 18 199 4.8 6.4 0.00 0.28 0.28 87 1018.2
20260906141009 18 186 4.8 6.4 0.00 0.28 0.28 88 1018.3
20260906140503 18 180 0.0 4.8 0.00 0.28 0.28 88 1018.2
20260906140001 18 135 0.0 4.8 0.00 0.28 0.28 89 1018.2
20260906135459 18 203 1.6 3.2 0.00 0.28 0.28 90 1018.0
20260906134955 17 138 4.8 6.4 0.00 0.28 0.28 91 1018.0
20260906134451 17 157 0.0 4.8 0.00 0.28 0.28 92 1018.1
20260906133951 17 180 0.0 6.4 0.00 0.28 0.28 92 1017.9
20260906133446 17 173 1.6 1.6 0.00 0.28 0.28 92 1018.0
20260906132942 17 83 0.0 3.2 0.00 0.28 0.28 93 1017.8
20260906132437 16 0 0.0 4.8 0.00 0.28 0.28 93 1018.0
20260906131932 17 294 1.6 3.2 0.00 0.28 0.28 93 1018.2
20260906131428 16 124 3.2 4.8 0.00 0.28 0.28 93 1017.8
20260906130923 16 353 0.0 0.0 0.00 0.28 0.28 93 1017.9
20260906130423 16 0 1.6 1.6 0.00 0.28 0.28 93 1017.9
20260906125922 16 165 0.0 3.2 0.00 0.28 0.28 94 1017.8
20260906125420 16 90 0.0 1.6 0.00 0.28 0.28 93 1017.8
20260906124914 16 128 4.8 4.8 0.00 0.28 0.28 93 1017.7
20260906124410 16 120 3.2 4.8 0.00 0.28 0.28 93 1017.3
20260906123910 16 171 0.0 4.8 0.00 0.28 0.28 93 1017.6
20260906123404 16 158 3.2 4.8 0.00 0.28 0.28 93 1017.6
20260906122904 16 165 0.0 3.2 0.00 0.28 0.28 93 1017.7
20260906122359 16 129 3.2 4.8 0.00 0.28 0.28 93 1017.9
20260906121855 16 285 0.0 4.8 0.00 0.28 0.28 92 1017.8
20260906121351 16 252 3.2 3.2 0.00 0.28 0.28 92 1017.7
20260906120847 16 0 1.6 4.8 0.00 0.28 0.28 92 1017.4
20260906120343 16 114 0.0 3.2 0.00 0.28 0.28 92 1017.4
20260906115839 16 278 0.0 0.0 0.00 0.28 0.28 92 1017.6
20260906115334 16 300 4.8 4.8 0.00 0.28 0.28 92 1017.3
20260906114833 16 125 0.0 4.8 0.00 0.28 0.28 91 1017.1
20260906114329 16 201 3.2 8.0 0.00 0.28 0.28 91 1016.9
20260906113824 16 165 0.0 3.2 0.00 0.28 0.28 91 1016.9
20260906113323 16 154 0.0 3.2 0.00 0.28 0.28 91 1017.3
20260906112818 16 6 4.8 6.4 0.00 0.28 0.28 90 1017.3
20260906112315 16 97 0.0 1.6 0.00 0.28 0.28 90 1017.3
20260906111814 16 243 1.6 4.8 0.00 0.28 0.28 90 1017.6
20260906111314 16 150 3.2 4.8 0.00 0.28 0.28 89 1017.3
20260906110809 17 180 0.0 3.2 0.00 0.28 0.28 89 1017.3
20260906110305 17 60 1.6 4.8 0.00 0.28 0.28 88 1016.9
20260906105804 17 75 3.2 4.8 0.00 0.28 0.28 87 1017.2
20260906105259 17 0 0.0 3.2 0.00 0.28 0.28 87 1016.8
20260906104755 17 52 0.0 3.2 0.00 0.28 0.28 87 1017.0
20260906104254 17 331 0.0 3.2 0.00 0.28 0.28 86 1016.6
20260906103752 17 212 0.0 3.2 0.00 0.28 0.28 86 1016.8
20260906103252 17 146 3.2 12.9 0.00 0.28 0.28 86 1016.1
20260906102748 17 135 4.8 8.0 0.00 0.28 0.28 87 1016.3
20260906102246 17 121 3.2 4.8 0.00 0.28 0.28 88 1016.5
20260906101742 17 97 0.0 1.6 0.00 0.28 0.28 88 1017.1
20260906101236 17 90 0.0 0.0 0.00 0.28 0.28 88 1017.1
20260906100732 17 187 0.0 3.2 0.00 0.28 0.28 88 1016.8
20260906100231 17 180 3.2 4.8 0.00 0.28 0.28 87 1016.8
20260906095727 17 190 4.8 6.4 0.00 0.28 0.28 86 1017.0
20260906095222 17 180 0.0 3.2 0.00 0.28 0.28 86 1016.5
20260906094721 17 135 4.8 6.4 0.00 0.28 0.28 86 1016.4
20260906094216 17 130 4.8 4.8 0.00 0.28 0.28 86 1016.5
20260906093713 17 90 0.0 3.2 0.00 0.28 0.28 85 1016.1
20260906093208 17 0 3.2 8.0 0.00 0.28 0.28 85 1016.2
20260906092703 17 45 4.8 8.0 0.00 0.28 0.28 85 1016.1
20260906092202 17 47 4.8 9.7 0.00 0.28 0.28 85 1015.8
20260906091659 17 45 4.8 8.0 0.00 0.28 0.28 85 1015.8
20260906091155 17 90 3.2 6.4 0.00 0.28 0.28 84 1016.0
20260906090651 17 48 3.2 6.4 0.00 0.28 0.28 84 1016.0
20260906090150 17 90 0.0 4.8 0.00 0.28 0.28 84 1016.3
20260906085649 17 134 6.4 12.9 0.00 0.28 0.28 83 1016.2
20260906085148 17 124 16.1 20.9 0.00 0.28 0.28 85 1016.1
20260906084643 17 205 9.7 24.1 0.00 0.28 0.28 87 1016.8
20260906084143 17 165 3.2 12.9 0.00 0.28 0.28 89 1016.2
20260906083638 17 132 8.0 14.5 0.00 0.28 0.28 90 1016.4
20260906083133 16 130 11.3 16.1 0.00 0.28 0.28 92 1016.4
20260906082628 16 132 6.4 20.9 0.00 0.28 0.28 94 1016.3
20260906082124 16 152 3.2 11.3 0.00 0.28 0.28 95 1015.8
20260906081620 16 215 0.0 9.7 0.00 0.28 0.28 95 1016.1
20260906081115 15 72 0.0 11.3 0.00 0.28 0.28 96 1016.1
20260906080611 15 94 3.2 17.7 0.00 0.28 0.28 96 1016.2
20260906080107 15 129 3.2 8.0 0.00 0.28 0.28 97 1016.4
20260906075601 15 194 0.0 8.0 0.00 0.28 0.28 97 1016.2
20260906075055 15 154 3.2 9.7 0.00 0.28 0.28 97 1016.4
20260906074551 15 18 3.2 8.0 0.00 0.28 0.28 97 1016.5
20260906074049 15 52 3.2 11.3 0.00 0.28 0.28 97 1016.4
20260906073544 15 164 0.0 8.0 0.00 0.28 0.28 97 1016.5
20260906073041 15 82 8.0 11.3 0.00 0.28 0.28 97 1016.6
20260906072535 15 246 1.6 14.5 0.00 0.28 0.28 97 1016.4
20260906072031 15 129 8.0 12.9 0.00 0.28 0.28 97 1016.5
20260906071527 15 59 3.2 8.0 0.00 0.28 0.28 97 1016.3
20260906071022 15 95 0.0 12.9 0.00 0.28 0.28 97 1016.3
20260906070518 15 26 0.0 11.3 0.00 0.28 0.28 97 1016.6
20260906070014 15 68 6.4 16.1 0.00 0.28 0.28 97 1016.3
20260906065513 15 130 4.8 16.1 0.00 0.28 0.28 97 1016.5
20260906065009 15 63 4.8 16.1 0.00 0.28 0.28 97 1016.4
20260906064505 15 46 25.7 32.2 0.00 0.28 0.28 97 1016.4
20260906064000 15 45 11.3 16.1 0.00 0.28 0.28 97 1017.1
20260906063455 15 79 12.9 20.9 0.00 0.28 0.28 97 1016.9
20260906062949 15 69 11.3 29.0 0.00 0.28 0.28 97 1016.6
20260906062444 15 121 12.9 25.7 0.13 0.28 0.28 97 1017.3
20260906061939 15 132 6.4 27.4 0.66 0.25 0.25 97 1017.0
20260906061435 15 65 3.2 38.6 1.02 0.25 0.25 97 1017.2
20260906060930 16 33 9.7 27.4 0.84 0.15 0.15 97 1017.8
20260906060427 16 66 11.3 27.4 0.79 0.08 0.08 97 1017.8
20260906055923 16 59 3.2 22.5 1.14 2.82 2.82 97 1017.4
20260906055419 16 23 9.7 19.3 1.75 2.77 2.77 97 1017.3
20260906054914 16 87 4.8 9.7 1.27 2.62 2.62 97 1018.5
20260906054408 16 270 0.0 6.4 0.13 2.41 2.41 97 1018.9
20260906053905 16 140 9.7 16.1 0.36 2.41 2.41 97 1018.1
20260906053400 16 206 1.6 16.1 0.66 2.39 2.39 97 1018.1
20260906052856 17 54 1.6 8.0 0.89 2.34 2.34 97 1018.3
20260906052352 17 138 9.7 12.9 0.61 2.26 2.26 97 1018.3
20260906051849 17 84 3.2 17.7 0.05 2.16 2.16 97 1018.8
20260906051348 16 131 8.0 12.9 0.05 2.16 2.16 97 1018.3
20260906050844 18 124 3.2 11.3 0.00 2.16 2.16 97 1018.7
20260906050339 18 155 6.4 17.7 0.00 2.16 2.16 97 1018.7
20260906045838 18 115 8.0 12.9 0.05 2.16 2.16 97 1017.8
20260906045332 18 109 3.2 8.0 0.13 2.16 2.16 97 1017.9
20260906044829 18 117 9.7 11.3 0.13 2.13 2.13 97 1017.7
20260906044323 18 167 6.4 16.1 0.05 2.13 2.13 97 1017.1
20260906043819 18 137 9.7 16.1 0.05 2.11 2.11 97 1018.0
20260906043315 18 154 4.8 17.7 0.18 2.11 2.11 97 1018.2
20260906042814 18 154 4.8 9.7 0.48 2.11 2.11 97 1017.9
20260906042314 18 116 8.0 9.7 1.75 2.08 2.08 96 1018.7
20260906041809 18 36 4.8 11.3 1.93 2.01 2.01 96 1018.8
20260906041304 18 275 3.2 6.4 0.43 1.75 1.75 96 1019.6
20260906040759 18 300 8.0 16.1 0.13 1.70 1.70 96 1018.6
20260906040255 18 2 14.5 20.9 0.43 1.68 1.68 96 1017.7
20260906035750 17 351 14.5 17.7 1.55 1.65 1.65 96 1018.6
20260906035246 17 331 11.3 22.5 3.48 1.55 1.55 95 1018.6
20260906034746 17 326 19.3 20.9 4.98 1.37 1.37 95 1019.7
20260906034241 17 290 8.0 33.8 4.09 0.86 0.86 94 1020.3
20260906033737 18 291 17.7 45.1 1.85 0.43 0.43 93 1020.2
20260906033236 18 231 3.2 56.3 0.79 0.13 0.13 89 1018.9
20260906032733 20 344 30.6 43.5 0.00 0.00 0.00 82 1017.8
20260906032232 19 206 1.6 14.5 0.00 0.00 0.00 78 1017.9
20260906031728 20 320 9.7 29.0 0.00 0.00 0.00 73 1017.7
20260906031223 21 220 11.3 20.9 0.00 0.00 0.00 75 1017.3
20260906030723 21 19 16.1 38.6 0.00 0.00 0.00 74 1016.4
20260906030218 21 8 16.1 32.2 0.00 0.00 0.00 73 1016.0
20260906025717 21 5 12.9 32.2 0.00 0.00 0.00 75 1016.4
20260906025212 20 39 16.1 30.6 0.00 0.00 0.00 78 1016.4
20260906024711 20 0 14.5 25.7 0.00 0.00 0.00 80 1016.0
20260906024210 20 4 17.7 29.0 0.00 0.00 0.00 80 1015.6
20260906023706 20 0 14.5 27.4 0.00 0.00 0.00 80 1016.0
20260906023201 21 343 35.4 37.0 0.00 0.00 0.00 73 1015.6
20260906022656 25 11 11.3 24.1 0.00 0.00 0.00 56 1015.5
20260906022152 25 28 11.3 24.1 0.00 0.00 0.00 58 1014.9
20260906021647 23 72 16.1 17.7 0.00 0.00 0.00 62 1015.1
20260906021146 23 12 3.2 16.1 0.00 0.00 0.00 63 1014.9
20260906020641 23 105 9.7 14.5 0.00 0.00 0.00 62 1015.1
20260906020136 24 35 6.4 20.9 0.00 0.00 0.00 58 1014.9
20260906015630 25 16 9.7 11.3 0.00 0.00 0.00 55 1015.2
20260906015128 26 114 8.0 20.9 0.00 0.00 0.00 55 1015.2
20260906014623 25 157 4.8 16.1 0.00 0.00 0.00 56 1014.7
20260906014119 25 165 4.8 16.1 0.00 0.00 0.00 57 1014.3
20260906013614 25 203 9.7 11.3 0.00 0.00 0.00 57 1014.0
20260906013110 25 149 4.8 17.7 0.00 0.00 0.00 56 1014.1
20260906012604 25 165 11.3 17.7 0.00 0.00 0.00 54 1013.9
20260906012059 25 133 9.7 24.1 0.00 0.00 0.00 52 1013.7
20260906011555 25 160 11.3 27.4 0.00 0.00 0.00 50 1013.7
20260906011055 25 207 11.3 17.7 0.00 0.00 0.00 48 1013.6
20260906010550 25 172 8.0 25.7 0.00 0.00 0.00 48 1013.6
20260906010046 25 141 9.7 20.9 0.00 0.00 0.00 50 1013.2
20260906005546 25 197 12.9 29.0 0.00 0.00 0.00 53 1013.3
20260906005045 24 155 11.3 30.6 0.00 0.00 0.00 53 1013.7
20260906004544 23 147 11.3 24.1 0.00 0.00 0.00 55 1013.6
20260906004039 23 187 16.1 20.9 0.00 0.00 0.00 56 1013.7
20260906003534 23 179 12.9 35.4 0.00 0.00 0.00 57 1014.1
20260906003031 23 172 8.0 22.5 0.00 0.00 0.00 54 1014.6
20260906002525 24 136 29.0 35.4 0.00 0.00 0.00 53 1014.4
20260906002020 24 202 22.5 48.3 0.00 0.00 0.00 53 1014.6
20260906001515 23 165 14.5 32.2 0.00 0.00 0.00 57 1014.7
20260906001009 22 185 24.1 45.1 0.00 0.00 0.00 59 1014.8
20260906000506 24 180 24.1 43.5 0.00 0.00 0.00 54 1014.7
20260906000000 23 191 12.9 37.0 0.00 0.00 0.00 58 1014.7
20260905235500 23 134 20.9 48.3 0.00 0.00 0.00 59 1014.8
20260905234955 28 178 12.9 32.2 0.00 0.00 0.00 53 1014.3
20260905234450 27 178 20.9 35.4 0.00 0.00 0.00 56 1013.7
20260905233944 27 169 24.1 33.8 0.00 0.00 0.00 55 1013.3
20260905233440 32 162 19.3 46.7 0.00 0.00 0.00 44 1013.1
20260905232938 32 124 14.5 43.5 0.00 0.00 0.00 40 1012.9
20260905232435 32 141 14.5 24.1 0.00 0.00 0.00 41 1013.0
20260905231930 32 133 4.8 20.9 0.00 0.00 0.00 41 1013.1
20260905231426 32 167 8.0 17.7 0.00 0.00 0.00 41 1012.8
20260905230922 33 154 12.9 17.7 0.00 0.00 0.00 41 1013.0
20260905230421 32 155 6.4 22.5 0.00 0.00 0.00 42 1012.8
20260905225919 32 185 11.3 25.7 0.00 0.00 0.00 42 1012.8
20260905225414 32 115 16.1 20.9 0.00 0.00 0.00 41 1012.7
20260905224909 32 147 17.7 24.1 0.00 0.00 0.00 41 1013.0
20260905224405 33 140 17.7 29.0 0.00 0.00 0.00 40 1012.5
20260905223859 33 162 3.2 29.0 0.00 0.00 0.00 40 1012.4
20260905223357 32 182 4.8 22.5 0.00 0.00 0.00 40 1012.9
20260905222851 32 150 9.7 29.0 0.00 0.00 0.00 40 1013.2
20260905222350 33 188 8.0 25.7 0.00 0.00 0.00 38 1013.3
20260905221847 34 193 11.3 29.0 0.00 0.00 0.00 36 1013.1
20260905221343 33 154 3.2 22.5 0.00 0.00 0.00 37 1013.2
20260905220839 33 165 17.7 17.7 0.00 0.00 0.00 37 1013.1
20260905220335 33 167 9.7 12.9 0.00 0.00 0.00 37 1013.1
20260905215834 34 110 19.3 24.1 0.00 0.00 0.00 36 1013.1
20260905215330 33 162 8.0 16.1 0.00 0.00 0.00 38 1013.2
20260905214826 33 161 6.4 24.1 0.00 0.00 0.00 39 1013.5
20260905214321 33 124 8.0 17.7 0.00 0.00 0.00 38 1013.6
20260905213816 33 162 22.5 27.4 0.00 0.00 0.00 39 1013.6
20260905213312 33 128 9.7 22.5 0.00 0.00 0.00 38 1013.7
20260905212807 33 125 11.3 19.3 0.00 0.00 0.00 39 1013.8
20260905212307 33 128 16.1 27.4 0.00 0.00 0.00 40 1013.8
20260905211801 33 150 14.5 22.5 0.00 0.00 0.00 39 1013.8
20260905211256 33 120 14.5 16.1 0.00 0.00 0.00 39 1014.0
20260905210753 33 202 9.7 17.7 0.00 0.00 0.00 39 1014.0